GCRR

Lanzarote

Airport
ICAO code
GCRR
Summary
ICAO Region
EUR
ICAO Territory
Location

Arrecife,

Coordinates
28° 56' 44" N , 13° 36' 19" W
KCC
Metar
Observation
GCRR 070200Z AUTO 27004KT CAVOK 15/10 Q1020
Station
Lanzarote / Aeropuerto
Date/Time
2023-02-07 02:00:00
Wind direction
270°
Wind speed
04 kts
Lowest cloud amount
clouds and visibility OK
Temperature
15°C
Dew point
10°C
Humidity
72%
QNH
1020 hPa
Weather condition
n/a

Description

Airport serving the island of Lanzarote.

Climatology

Dry-summer subtropical ”Mediterranean" climate (Köppen climate classification Csa) - characterized by hot, dry summers and mild winters. During the summer, subtropical high pressure cells dominate, making rainfall unlikely except for the occasional thunderstorm. In the winter, periodic storms bring rain (snow at higher elevations).

Runways

Designator Length Width Surface Rops
3/21 2400 45 ASP Yes/Yes

Airport map

Aerial View

SKYbrary Partners:

Safety knowledge contributed by: